HDA824 VHHH-ZUUU

Flight info

Callsign HDA824
Flight time 2h 24m
Altitude 34100
Route BEKOL A461 SHL W22 TEPID W24 OSNOV G586 QP B330 ELKAL W179 IGNAK
Aircraft A320/M-SDE3FGHIRWY/LB1

Departure

Time 2026-05-04 09:01
Airport Hong Kong International Airport (VHHH)

Arrival

Time 2026-05-04 11:25
Airport Chengdu Shuangliu International Airport (ZUUU)
Time Latitude Longitude Altitude Speed Heading
2026-05-04 08:24 22.31054 113.92693 32 ft 0 kts 296°
2026-05-04 08:48 22.31052 113.92696 32 ft 2 kts 296°
2026-05-04 08:48 22.31045 113.92711 32 ft 2 kts 296°
2026-05-04 08:48 22.31039 113.92725 32 ft 2 kts 296°
2026-05-04 08:48 22.31032 113.92740 32 ft 2 kts 296°
2026-05-04 08:49 22.31025 113.92754 32 ft 2 kts 296°
2026-05-04 08:50 22.31035 113.92821 32 ft 1 kts 205°
2026-05-04 08:50 22.31037 113.92821 32 ft 0 kts 205°
2026-05-04 08:52 22.31036 113.92821 32 ft 0 kts 205°
2026-05-04 08:52 22.31016 113.92811 32 ft 6 kts 205°
2026-05-04 08:52 22.30956 113.92780 32 ft 11 kts 207°
2026-05-04 08:52 22.30879 113.92738 32 ft 12 kts 206°
2026-05-04 08:53 22.30823 113.92665 32 ft 13 kts 249°
2026-05-04 08:54 22.30307 113.91068 31 ft 31 kts 251°
2026-05-04 08:55 22.30236 113.90853 32 ft 29 kts 251°
2026-05-04 08:55 22.30175 113.90653 31 ft 27 kts 250°
2026-05-04 08:55 22.30113 113.90461 31 ft 26 kts 250°
2026-05-04 08:55 22.30053 113.90279 32 ft 24 kts 251°
2026-05-04 08:57 22.29760 113.89756 31 ft 0 kts 160°
2026-05-04 09:01 22.31446 113.95677 1821 ft 166 kts 72°
2026-05-04 09:01 22.31859 113.96894 2121 ft 180 kts 71°
2026-05-04 09:01 22.32300 113.98206 2450 ft 193 kts 71°
2026-05-04 09:01 22.32782 113.99659 2699 ft 214 kts 71°
2026-05-04 09:02 22.33285 114.01195 3169 ft 225 kts 72°
2026-05-04 09:02 22.33779 114.02828 3718 ft 233 kts 80°
2026-05-04 09:02 22.33801 114.04586 4303 ft 239 kts 102°
2026-05-04 09:02 22.33199 114.06267 4875 ft 245 kts 124°
2026-05-04 09:03 22.32043 114.07619 5467 ft 249 kts 146°
2026-05-04 09:03 22.30485 114.08514 5941 ft 257 kts 166°
2026-05-04 09:03 22.28725 114.08823 6558 ft 257 kts 184°
2026-05-04 09:03 22.26908 114.08800 7090 ft 268 kts 186°
2026-05-04 09:04 22.24977 114.08740 7590 ft 281 kts 186°
2026-05-04 09:04 22.23005 114.08695 8308 ft 284 kts 186°
2026-05-04 09:04 22.21032 114.08668 9037 ft 285 kts 185°
2026-05-04 09:04 22.19046 114.08848 9674 ft 296 kts 167°
2026-05-04 09:05 22.17221 114.09961 10299 ft 310 kts 141°
2026-05-04 09:05 22.15959 114.11895 10659 ft 331 kts 112°
2026-05-04 09:05 22.15553 114.14387 10943 ft 349 kts 94°
2026-05-04 09:05 22.15461 114.17075 11215 ft 364 kts 93°
2026-05-04 09:06 22.15356 114.19841 11468 ft 378 kts 94°
2026-05-04 09:07 22.19253 114.40018 14593 ft 409 kts 43°
2026-05-04 09:08 22.21540 114.41760 15056 ft 402 kts 19°
2026-05-04 09:08 22.24238 114.42450 15494 ft 394 kts 357°
2026-05-04 09:08 22.26923 114.42138 15930 ft 389 kts 343°
2026-05-04 09:08 22.29605 114.41553 16346 ft 392 kts 343°
2026-05-04 09:09 22.32281 114.40986 16749 ft 394 kts 344°
2026-05-04 09:09 22.34993 114.40439 17175 ft 396 kts 344°
2026-05-04 09:09 22.37726 114.39908 17594 ft 398 kts 345°
2026-05-04 09:09 22.40458 114.39385 17982 ft 400 kts 345°
2026-05-04 09:10 22.43200 114.38864 18374 ft 402 kts 345°
2026-05-04 09:10 22.45946 114.38242 18740 ft 399 kts 336°
2026-05-04 09:10 22.48371 114.36832 19062 ft 390 kts 316°
2026-05-04 09:10 22.50172 114.34712 19460 ft 382 kts 299°
2026-05-04 09:11 22.51261 114.32144 19824 ft 377 kts 283°
2026-05-04 09:11 22.51758 114.29371 20204 ft 377 kts 277°
2026-05-04 09:11 22.52204 114.26535 20472 ft 381 kts 278°
2026-05-04 09:11 22.52658 114.23686 20661 ft 388 kts 278°
2026-05-04 09:12 22.53116 114.20837 20961 ft 390 kts 278°
2026-05-04 09:12 22.53607 114.17920 21284 ft 392 kts 281°
2026-05-04 09:14 22.69294 114.05660 23355 ft 423 kts 329°
2026-05-04 09:14 22.71965 114.04286 23624 ft 425 kts 329°
2026-05-04 09:14 22.74633 114.02914 23896 ft 427 kts 329°
2026-05-04 09:14 22.77316 114.01533 24179 ft 428 kts 329°
2026-05-04 09:15 22.80011 114.00145 24426 ft 430 kts 329°
2026-05-04 09:15 22.82730 113.98741 24654 ft 433 kts 329°
2026-05-04 09:15 22.85466 113.97330 24873 ft 435 kts 329°
2026-05-04 09:15 22.88210 113.95915 25115 ft 437 kts 329°
2026-05-04 09:17 23.10167 113.83688 26852 ft 445 kts 316°
2026-05-04 09:18 23.12510 113.81535 27034 ft 443 kts 311°
2026-05-04 09:18 23.14753 113.79236 27269 ft 443 kts 310°
2026-05-04 09:18 23.16983 113.76899 27475 ft 444 kts 310°
2026-05-04 09:18 23.19195 113.74571 27685 ft 445 kts 310°
2026-05-04 09:19 23.21439 113.72212 27972 ft 444 kts 310°
2026-05-04 09:19 23.23650 113.69894 28235 ft 444 kts 310°
2026-05-04 09:19 23.25865 113.67570 28464 ft 445 kts 310°
2026-05-04 09:19 23.28086 113.65239 28726 ft 444 kts 309°
2026-05-04 09:20 23.30316 113.62903 29038 ft 443 kts 309°
2026-05-04 09:20 23.32540 113.60568 29343 ft 442 kts 309°
2026-05-04 09:20 23.34738 113.58261 29665 ft 440 kts 309°
2026-05-04 09:20 23.36928 113.55963 29990 ft 438 kts 309°
2026-05-04 09:21 23.39122 113.53655 30290 ft 437 kts 309°
2026-05-04 09:21 23.41315 113.51350 30581 ft 436 kts 309°
2026-05-04 09:21 23.43478 113.49075 30894 ft 434 kts 309°
2026-05-04 09:21 23.45648 113.46790 31221 ft 432 kts 309°
2026-05-04 09:22 23.47798 113.44527 31518 ft 430 kts 309°
2026-05-04 09:22 23.49920 113.42292 31821 ft 428 kts 309°
2026-05-04 09:22 23.52075 113.40020 32097 ft 427 kts 309°
2026-05-04 09:22 23.54187 113.37790 32355 ft 426 kts 309°
2026-05-04 09:23 23.56310 113.35516 32604 ft 425 kts 308°
2026-05-04 09:23 23.58410 113.33253 32838 ft 425 kts 308°
2026-05-04 09:23 23.60507 113.30969 33080 ft 424 kts 307°
2026-05-04 09:23 23.62508 113.28581 33301 ft 422 kts 304°
2026-05-04 09:25 23.72784 113.09787 34116 ft 412 kts 289°
2026-05-04 09:25 23.74036 113.06951 34115 ft 414 kts 293°
2026-05-04 09:26 23.77431 113.01841 34122 ft 425 kts 306°
2026-05-04 09:26 23.82002 112.97659 34127 ft 436 kts 320°
2026-05-04 09:27 23.87591 112.94762 34139 ft 451 kts 333°
2026-05-04 09:27 23.93595 112.92741 34149 ft 452 kts 335°
2026-05-04 09:28 23.99636 112.90752 34152 ft 452 kts 334°
2026-05-04 09:28 24.05669 112.88747 34152 ft 452 kts 334°
2026-05-04 09:29 24.11676 112.86744 34151 ft 453 kts 334°
2026-05-04 09:29 24.17701 112.84737 34153 ft 451 kts 334°
2026-05-04 09:30 24.23749 112.82728 34153 ft 452 kts 334°
2026-05-04 09:30 24.29753 112.80731 34156 ft 450 kts 334°
2026-05-04 09:31 24.35752 112.78732 34155 ft 450 kts 334°
2026-05-04 09:31 24.41452 112.76202 34156 ft 434 kts 320°
2026-05-04 09:32 24.45936 112.71995 34160 ft 415 kts 302°
2026-05-04 09:34 24.51169 112.51883 34165 ft 396 kts 274°
2026-05-04 09:34 24.51469 112.48851 34167 ft 396 kts 274°
2026-05-04 09:34 24.52055 112.42846 34168 ft 396 kts 274°
2026-05-04 09:35 24.52636 112.36866 34168 ft 396 kts 274°
2026-05-04 09:35 24.53210 112.30865 34167 ft 396 kts 273°
2026-05-04 09:37 24.55493 112.06840 34182 ft 396 kts 274°
2026-05-04 09:38 24.56054 112.00871 34183 ft 396 kts 274°
2026-05-04 09:38 24.56619 111.94846 34188 ft 397 kts 273°
2026-05-04 09:39 24.57179 111.88820 34186 ft 397 kts 273°
2026-05-04 09:39 24.57737 111.82799 34183 ft 397 kts 273°
2026-05-04 09:40 24.58292 111.76796 34180 ft 397 kts 273°
2026-05-04 09:40 24.58845 111.70809 34170 ft 397 kts 273°
2026-05-04 09:42 24.61028 111.46776 34143 ft 396 kts 273°
2026-05-04 09:43 24.61574 111.40725 34140 ft 396 kts 274°
2026-05-04 09:43 24.62109 111.34721 34140 ft 396 kts 273°
2026-05-04 09:44 24.62644 111.28716 34140 ft 396 kts 273°
2026-05-04 09:46 24.64712 111.04698 34156 ft 395 kts 273°
2026-05-04 09:46 24.65221 110.98727 34162 ft 395 kts 273°
2026-05-04 09:47 24.65731 110.92709 34158 ft 397 kts 274°
2026-05-04 09:49 24.72127 110.72760 34134 ft 413 kts 302°
2026-05-04 09:49 24.74025 110.70387 34130 ft 418 kts 308°
2026-05-04 09:51 24.88726 110.54795 34134 ft 419 kts 309°
2026-05-04 09:51 24.92915 110.50372 34135 ft 420 kts 309°
2026-05-04 09:52 24.97130 110.45919 34141 ft 419 kts 309°
2026-05-04 09:52 25.01324 110.41484 34143 ft 419 kts 309°
2026-05-04 09:53 25.05544 110.37028 34136 ft 419 kts 309°
2026-05-04 09:53 25.09751 110.32584 34129 ft 419 kts 309°
2026-05-04 09:54 25.13951 110.28143 34122 ft 419 kts 309°
2026-05-04 09:54 25.18169 110.23675 34119 ft 420 kts 309°
2026-05-04 09:55 25.22374 110.19237 34117 ft 419 kts 309°
2026-05-04 09:55 25.26605 110.14815 34118 ft 418 kts 309°
2026-05-04 09:56 25.30817 110.10408 34118 ft 418 kts 309°
2026-05-04 09:56 25.35022 110.06001 34124 ft 418 kts 309°
2026-05-04 09:57 25.39236 110.01576 34129 ft 419 kts 309°
2026-05-04 09:57 25.43443 109.97155 34140 ft 419 kts 309°
2026-05-04 09:58 25.47660 109.92718 34151 ft 418 kts 309°
2026-05-04 09:58 25.51880 109.88273 34158 ft 418 kts 309°
2026-05-04 10:00 25.68655 109.70557 34148 ft 417 kts 309°
2026-05-04 10:02 25.79753 109.52583 34128 ft 400 kts 286°
2026-05-04 10:04 25.85310 109.31949 34142 ft 399 kts 283°
2026-05-04 10:04 25.86860 109.26043 34143 ft 398 kts 283°
2026-05-04 10:05 25.88400 109.20163 34144 ft 399 kts 283°
2026-05-04 10:05 25.89943 109.14258 34143 ft 399 kts 283°
2026-05-04 10:06 25.91479 109.08375 34142 ft 400 kts 283°
2026-05-04 10:06 25.93032 109.02438 34143 ft 399 kts 283°
2026-05-04 10:08 25.98514 108.81812 34156 ft 399 kts 284°
2026-05-04 10:08 26.00074 108.75907 34163 ft 399 kts 284°
2026-05-04 10:09 26.01638 108.69999 34165 ft 399 kts 284°
2026-05-04 10:09 26.03212 108.64087 34162 ft 399 kts 284°
2026-05-04 10:10 26.04781 108.58185 34161 ft 400 kts 284°
2026-05-04 10:10 26.06357 108.52238 34158 ft 400 kts 284°
2026-05-04 10:11 26.07916 108.46353 34160 ft 400 kts 284°
2026-05-04 10:11 26.09641 108.40468 34166 ft 401 kts 288°
2026-05-04 10:12 26.11852 108.34741 34182 ft 402 kts 292°
2026-05-04 10:12 26.14259 108.29148 34199 ft 401 kts 292°
2026-05-04 10:13 26.16667 108.23570 34208 ft 401 kts 292°
2026-05-04 10:13 26.19068 108.18012 34216 ft 401 kts 292°
2026-05-04 10:14 26.21485 108.12403 34215 ft 401 kts 292°
2026-05-04 10:16 26.31087 107.90080 34201 ft 400 kts 293°
2026-05-04 10:16 26.33479 107.84499 34201 ft 400 kts 293°
2026-05-04 10:17 26.35869 107.78920 34201 ft 400 kts 293°
2026-05-04 10:19 26.45408 107.56560 34213 ft 400 kts 293°
2026-05-04 10:19 26.47788 107.50964 34212 ft 400 kts 293°
2026-05-04 10:20 26.50160 107.45367 34231 ft 400 kts 293°
2026-05-04 10:20 26.52525 107.39778 34230 ft 399 kts 293°
2026-05-04 10:21 26.54883 107.34203 34236 ft 399 kts 293°
2026-05-04 10:21 26.57258 107.28597 34234 ft 398 kts 292°
2026-05-04 10:22 26.60805 107.20209 34237 ft 398 kts 292°
2026-05-04 10:23 26.63153 107.14641 34231 ft 397 kts 293°
2026-05-04 10:25 26.72603 106.92378 34239 ft 397 kts 293°
2026-05-04 10:25 26.75001 106.86809 34236 ft 398 kts 295°
2026-05-04 10:26 26.77806 106.81518 34247 ft 399 kts 301°
2026-05-04 10:26 26.81145 106.76542 34238 ft 401 kts 306°
2026-05-04 10:27 26.84997 106.71953 34256 ft 405 kts 311°
2026-05-04 10:27 26.89177 106.67762 34250 ft 406 kts 314°
2026-05-04 10:28 26.93439 106.63572 34254 ft 406 kts 314°
2026-05-04 10:28 26.97677 106.59413 34258 ft 405 kts 314°
2026-05-04 10:29 27.01907 106.55260 34259 ft 404 kts 314°
2026-05-04 10:29 27.06127 106.51112 34258 ft 404 kts 314°
2026-05-04 10:30 27.10369 106.46941 34257 ft 404 kts 314°
2026-05-04 10:30 27.14571 106.42807 34253 ft 404 kts 314°
2026-05-04 10:31 27.18784 106.38650 34256 ft 404 kts 314°
2026-05-04 10:32 27.33637 106.24184 34251 ft 403 kts 314°
2026-05-04 10:33 27.37875 106.20051 34250 ft 403 kts 314°
2026-05-04 10:33 27.42104 106.15919 34250 ft 403 kts 314°
2026-05-04 10:34 27.46341 106.11779 34248 ft 403 kts 314°
2026-05-04 10:34 27.50562 106.07649 34236 ft 402 kts 314°
2026-05-04 10:35 27.54776 106.03522 34234 ft 402 kts 314°
2026-05-04 10:35 27.58992 105.99384 34222 ft 402 kts 314°
2026-05-04 10:36 27.63205 105.95250 34214 ft 402 kts 314°
2026-05-04 10:36 27.67327 105.91012 34213 ft 399 kts 309°
2026-05-04 10:37 27.70873 105.86231 34206 ft 395 kts 302°
2026-05-04 10:37 27.73735 105.80985 34194 ft 393 kts 296°
2026-05-04 10:39 27.80179 105.60785 34199 ft 393 kts 291°
2026-05-04 10:40 27.82314 105.55119 34198 ft 393 kts 292°
2026-05-04 10:40 27.84493 105.49466 34201 ft 393 kts 293°
2026-05-04 10:41 27.86670 105.43830 34203 ft 393 kts 292°
2026-05-04 10:41 27.88913 105.38183 34206 ft 394 kts 295°
2026-05-04 10:42 27.91369 105.32648 34205 ft 394 kts 295°
2026-05-04 10:42 27.93826 105.27141 34210 ft 394 kts 296°
2026-05-04 10:43 27.96732 105.21909 34214 ft 395 kts 303°
2026-05-04 10:44 28.11600 105.07818 34181 ft 406 kts 322°
2026-05-04 10:45 28.13989 105.06142 34182 ft 406 kts 322°
2026-05-04 10:45 28.18805 105.02771 34186 ft 405 kts 322°
2026-05-04 10:46 28.23596 104.99416 34196 ft 406 kts 322°
2026-05-04 10:46 28.28387 104.96060 34196 ft 406 kts 322°
2026-05-04 10:47 28.33205 104.92683 34177 ft 407 kts 322°
2026-05-04 10:47 28.38022 104.89301 34156 ft 407 kts 322°
2026-05-04 10:49 28.57229 104.75865 34097 ft 405 kts 322°
2026-05-04 10:50 28.62033 104.72498 34100 ft 406 kts 322°
2026-05-04 10:52 28.80421 104.59566 34085 ft 404 kts 322°
2026-05-04 10:52 28.85974 104.55650 34076 ft 404 kts 322°
2026-05-04 10:54 29.02653 104.43767 33616 ft 402 kts 322°
2026-05-04 10:54 29.04992 104.42097 33363 ft 400 kts 322°
2026-05-04 10:56 29.21368 104.30377 31716 ft 397 kts 322°
2026-05-04 10:56 29.22957 104.29247 31564 ft 398 kts 323°
2026-05-04 10:56 29.26150 104.27193 31163 ft 391 kts 327°
2026-05-04 10:57 29.28561 104.25845 30824 ft 385 kts 329°
2026-05-04 10:57 29.30985 104.24649 30491 ft 380 kts 332°
2026-05-04 10:57 29.33457 104.23562 30157 ft 374 kts 333°
2026-05-04 10:57 29.35860 104.22534 29822 ft 368 kts 333°
2026-05-04 10:58 29.38259 104.21511 29475 ft 362 kts 333°
2026-05-04 10:58 29.40589 104.20520 29198 ft 354 kts 333°
2026-05-04 10:58 29.42105 104.19875 29044 ft 351 kts 333°
2026-05-04 10:58 29.45164 104.18569 28719 ft 350 kts 333°
2026-05-04 10:59 29.46674 104.17925 28563 ft 349 kts 333°
2026-05-04 10:59 29.49700 104.16635 28247 ft 348 kts 333°
2026-05-04 10:59 29.51956 104.15673 28006 ft 347 kts 333°
2026-05-04 10:59 29.54213 104.14710 27768 ft 346 kts 333°
2026-05-04 11:00 29.56473 104.13746 27529 ft 344 kts 333°
2026-05-04 11:01 29.72011 104.07111 25858 ft 338 kts 334°
2026-05-04 11:02 29.74211 104.06147 25610 ft 336 kts 331°
2026-05-04 11:02 29.76246 104.04900 25375 ft 331 kts 323°
2026-05-04 11:05 29.96925 103.77245 21940 ft 323 kts 309°
2026-05-04 11:06 29.98339 103.75246 21692 ft 323 kts 309°
2026-05-04 11:06 29.99739 103.73268 21444 ft 321 kts 309°
2026-05-04 11:06 30.01159 103.71259 21198 ft 320 kts 309°
2026-05-04 11:06 30.02560 103.69275 20958 ft 319 kts 309°
2026-05-04 11:08 30.14230 103.62064 18317 ft 327 kts 17°
2026-05-04 11:10 30.29534 103.69185 15386 ft 321 kts 19°
2026-05-04 11:12 30.43934 103.75893 12531 ft 317 kts 21°
2026-05-04 11:12 30.45312 103.76539 12252 ft 317 kts 21°
2026-05-04 11:12 30.47342 103.77489 11839 ft 317 kts 21°
2026-05-04 11:12 30.50073 103.78767 11285 ft 317 kts 21°
2026-05-04 11:13 30.52123 103.79728 10872 ft 317 kts 21°
2026-05-04 11:13 30.53464 103.80357 10601 ft 317 kts 21°
2026-05-04 11:13 30.56196 103.81638 10137 ft 309 kts 21°
2026-05-04 11:13 30.57487 103.82243 9961 ft 298 kts 21°
2026-05-04 11:14 30.58133 103.82546 9844 ft 294 kts 21°
2026-05-04 11:14 30.63556 103.85088 8821 ft 273 kts 22°
2026-05-04 11:16 30.74642 103.90299 7299 ft 246 kts 22°
2026-05-04 11:16 30.76194 103.91029 6974 ft 241 kts 22°
2026-05-04 11:16 30.77731 103.91752 6649 ft 235 kts 22°
2026-05-04 11:17 30.79240 103.92462 6419 ft 228 kts 22°
2026-05-04 11:17 30.80700 103.93150 6304 ft 227 kts 22°
2026-05-04 11:19 30.83441 104.01759 4987 ft 193 kts 116°
2026-05-04 11:19 30.82318 104.03295 4539 ft 189 kts 153°
2026-05-04 11:19 30.81490 104.03617 4337 ft 187 kts 171°
2026-05-04 11:19 30.79772 104.03799 3988 ft 185 kts 179°
2026-05-04 11:20 30.78479 104.03777 3929 ft 185 kts 184°
2026-05-04 11:20 30.77201 104.03546 3925 ft 185 kts 193°
2026-05-04 11:20 30.75956 104.03114 3921 ft 186 kts 199°
2026-05-04 11:20 30.74748 104.02586 3922 ft 186 kts 200°
2026-05-04 11:22 30.66465 103.98711 3052 ft 166 kts 200°
2026-05-04 11:22 30.65430 103.98229 2856 ft 153 kts 201°
2026-05-04 11:23 30.64795 103.97933 2730 ft 144 kts 200°
2026-05-04 11:23 30.63602 103.97379 2493 ft 136 kts 201°
2026-05-04 11:24 30.58337 103.94927 1638 ft 103 kts 201°
2026-05-04 11:25 30.57966 103.94757 1637 ft 70 kts 204°
2026-05-04 11:25 30.57638 103.94614 1637 ft 29 kts 192°
2026-05-04 11:25 30.57508 103.94602 1637 ft 26 kts 176°
2026-05-04 11:26 30.57359 103.94634 1637 ft 0 kts 146°
2026-05-04 11:27 30.57266 103.94874 1637 ft 8 kts 113°
2026-05-04 11:28 30.57242 103.94939 1637 ft 10 kts 113°
2026-05-04 11:28 30.57213 103.95028 1637 ft 11 kts 97°
2026-05-04 11:28 30.57249 103.95074 1637 ft 5 kts 23°
2026-05-04 11:28 30.57273 103.95085 1637 ft 0 kts 22°